[[{"header":{"parameterUnit":"m.s-1","parameterCategory":2,"la1":30.2991,"la2":30.254,"lo1":-89.0895,"lo2":-89.0444,"dy":0.0017,"dx":0.0017,"nx":28,"ny":28,"refTime":"2024-04-13T03:00:00:Z","depth":"0","parameterNumber":2,"parameterNumberName":"U-component_of_CURRENTS"},"data":[0,0,0,0,0,0,0,0,0,0,0,0,0,0,0,0,0,0,0,0,0,0,0,0,0,0,0,0,0,0,0,0,0,0,0,0,0,0,0,0,0,0,0,0,0,0,0,0,0,0,0,0,0,0,0,0,0,0,0.2491,0.2492,0,0.2556,0.2556,0.2557,0.2559,0.2559,0.2558,0.2557,0.258,0.2582,0.2583,0,0,0,0,0,0,0,0,0,0,0,0,0,0.2415,0.2416,0.2491,0.2492,0.2493,0.2556,0.2556,0.2557,0.2559,0.2559,0.2558,0.2557,0.258,0.2581,0.2583,0,0,0,0,0,0,0,0,0,0,0,0,0,0.2458,0.2416,0.2491,0.2503,0.2505,0.2555,0.2556,0.2557,0.2559,0.2559,0.2558,0.2557,0.258,0.2581,0.2583,0.2612,0,0,0.2588,0.2589,0,0,0,0,0,0,0,0,0.2456,0.2461,0.25,0.2502,0.2505,0.255,0.2538,0.2574,0.256,0.2537,0.2557,0.2556,0.2568,0.2571,0.2583,0.2613,0.2614,0.2589,0.259,0.259,0.2591,0,0,0,0,0,0,0,0.2453,0.2459,0.2515,0.2502,0.2504,0.2521,0.2526,0.2545,0.2555,0.2539,0.2539,0.255,0.2569,0.2581,0.2583,0.2614,0.2589,0.259,0.2591,0.2592,0.2697,0.2698,0,0,0,0,0,0,0.2448,0.2456,0.2513,0.2517,0.248,0.2523,0.2528,0.2535,0.2555,0.2558,0.2551,0.255,0.2579,0.2581,0.2584,0.2643,0.259,0.2592,0.2593,0.2695,0.2697,0.2699,0,0,0,0,0,0,0.2446,0.2452,0.251,0.2489,0.2498,0.2525,0.2533,0.2537,0.2553,0.2565,0.2567,0.2564,0.2578,0.2582,0.2618,0.2642,0.2593,0.2594,0.2693,0.2695,0.2698,0.2745,0,0,0,0,0,0,0.2443,0.2451,0.2455,0.2489,0.2499,0.2553,0.2534,0.2539,0.2562,0.2561,0.2577,0.2578,0.2578,0.2615,0.262,0.2644,0.2596,0.2691,0.2694,0.2697,0.2741,0.2749,0.2755,0,0,0,0,0,0.244,0.2454,0.2455,0.2462,0.2504,0.2554,0.2562,0.2576,0.2563,0.2584,0.2594,0.2578,0.2638,0.2619,0.2623,0.2648,0.2689,0.2693,0.2697,0.2738,0.2747,0.2755,0,0,0,0,0,0,0.2427,0.2457,0.2458,0.2481,0.2519,0.2556,0.2576,0.2583,0.2608,0.2603,0.2603,0.2607,0.2649,0.2646,0.2624,0.269,0.266,0.2665,0.269,0.2699,0.2705,0.27,0.2597,0,0,0,0,0,0.2426,0.2441,0.2479,0.2499,0.2517,0.2546,0.2566,0.258,0.2606,0.2616,0.2629,0.2644,0.2671,0.2681,0.2705,0.2739,0.2785,0.2759,0.2766,0.2772,0.2772,0.2858,0.2873,0.2712,0.2711,0.2711,0,0,0.2426,0.2446,0.2454,0.2497,0.2523,0.2565,0.2556,0.2595,0.2627,0.2615,0.2659,0.2673,0.2688,0.2732,0.2749,0.2729,0.2854,0.2777,0.2781,0.2779,0.2863,0.2879,0.2893,0.2714,0.2714,0.2713,0,0,0.2448,0.2453,0.248,0.2514,0.256,0.2582,0.2595,0.2639,0.2654,0.2702,0.2702,0.2731,0.277,0.2787,0.2798,0.2858,0.2893,0.2867,0.2892,0.2976,0.299,0.3002,0.3134,0.3158,0.2864,0.2864,0.2864,0,0.2448,0.2483,0.2499,0.2541,0.2568,0.2591,0.2633,0.2662,0.2712,0.2727,0.2721,0.2789,0.2796,0.2848,0.2866,0.2873,0.2946,0.2856,0.2985,0.2998,0.301,0.3142,0.3168,0.2867,0.2866,0.2866,0.2866,0,0.2498,0.2526,0.2549,0.26,0.2634,0.2676,0.2715,0.2748,0.2762,0.2784,0.2839,0.2861,0.2897,0.2908,0.2903,0.2988,0.3026,0.299,0.2962,0.303,0.3165,0.3191,0.287,0.2869,0.2869,0.2868,0,0,0.2501,0.2568,0.2577,0.2601,0.2665,0.2696,0.2751,0.2803,0.2837,0.2874,0.2928,0.2961,0.2966,0.2981,0.2988,0.3046,0.3205,0.3055,0.3058,0.3185,0.3448,0.3418,0.3444,0.3199,0.3202,0.3205,0.3528,0,0.2538,0.2606,0.2636,0.27,0.2734,0.2768,0.2816,0.2859,0.2899,0.296,0.2978,0.3039,0.2998,0.3033,0.3082,0.318,0.3268,0.3124,0.3364,0.3372,0.3334,0.3469,0.3322,0.3591,0.3553,0.3558,0.3561,0,0.2582,0.2617,0.268,0.2734,0.2753,0.2794,0.2862,0.2913,0.299,0.3022,0.3071,0.3107,0.3204,0.3156,0.3356,0.3275,0.3366,0.3432,0.3446,0.341,0.3388,0.3507,0.364,0.3514,0.3601,0.3598,0.3595,0,0.2568,0.2645,0.2687,0.2711,0.2783,0.281,0.2851,0.2924,0.2984,0.3079,0.3156,0.3233,0.334,0.3426,0.3561,0.3483,0.3804,0.3713,0.3781,0.3783,0.3698,0.3684,0.3725,0.3864,0.3863,0.3862,0.3861,0,0.2596,0.2625,0.2681,0.2704,0.2755,0.2803,0.2878,0.2925,0.3032,0.313,0.3191,0.3315,0.3417,0.3596,0.3652,0.3834,0.3893,0.3831,0.3866,0.3716,0.37,0.3614,0.3549,0.3874,0.3871,0.3869,0.3867,0,0.259,0.2624,0.2674,0.2737,0.2752,0.2792,0.2896,0.2958,0.3065,0.3212,0.3264,0.3455,0.3681,0.3804,0.4016,0.3999,0.403,0.4181,0.4024,0.403,0.3873,0.3816,0.3803,0.3698,0.4288,0.429,0.4291,0,0.2601,0.2626,0.2687,0.2715,0.2746,0.2811,0.2858,0.2954,0.3041,0.3301,0.3383,0.3656,0.3804,0.4121,0.4176,0.4318,0.415,0.4249,0.4021,0.3884,0.385,0.3669,0.3566,0.3976,0.3975,0.3973,0.3972,0,0.2634,0.2653,0.2692,0.2751,0.2795,0.2841,0.2922,0.299,0.3143,0.3276,0.3495,0.3638,0.3946,0.4023,0.4217,0.4258,0.4009,0.4221,0.4115,0.3646,0.342,0.3327,0.3785,0.396,0.3961,0.3962,0.3963,0.3963,0.2664,0.2693,0.2756,0.2797,0.2841,0.2876,0.2895,0.2999,0.3119,0.3295,0.3495,0.3651,0.3832,0.4053,0.4077,0.4,0.3962,0.3855,0.3829,0.3682,0.3453,0.3903,0.4064,0.4066,0.4068,0.4069,0.407,0,0.2713,0.2743,0.28,0.2838,0.2861,0.2881,0.2941,0.2947,0.3038,0.3219,0.337,0.3533,0.3618,0.3712,0.3737,0.3618,0.3421,0.3527,0.3221,0.316,0.3617,0.3468,0.346,0.346,0.346,0.346,0.346,0.346,0.2748,0.2804,0.2815,0.2852,0.2857,0.2852,0.2853,0.2857,0.2942,0.3017,0.3082,0.3198,0.338,0.3474,0.3371,0.3299,0.3031,0.2928,0.2915,0.3209,0.3235,0.3259,0.31,0.3015,0.3015,0.2301,0.2296,0.2292]},{"header":{"parameterUnit":"m.s-1","parameterCategory":2,"la1":30.2991,"la2":30.254,"lo1":-89.0895,"lo2":-89.0444,"dy":0.0017,"dx":0.0017,"nx":28,"ny":28,"refTime":"2024-04-13T03:00:00:Z","depth":"0","parameterNumber":3,"parameterNumberName":"V-component_of_CURRENTS"},"data":[0,0,0,0,0,0,0,0,0,0,0,0,0,0,0,0,0,0,0,0,0,0,0,0,0,0,0,0,0,0,0,0,0,0,0,0,0,0,0,0,0,0,0,0,0,0,0,0,0,0,0,0,0,0,0,0,0,0,0.0083,0.0082,0,0.0011,0.001,0.0009,-0.0043,-0.0043,-0.0044,-0.0044,-0.0147,-0.0149,-0.0152,0,0,0,0,0,0,0,0,0,0,0,0,0,0.012,0.0119,0.0083,0.0082,0.0081,0.0011,0.001,0.0009,-0.0043,-0.0043,-0.0044,-0.0044,-0.0146,-0.0149,-0.0152,0,0,0,0,0,0,0,0,0,0,0,0,0,0.008,0.0119,0.0083,0.0048,0.0045,0.0011,0.001,0.0008,-0.0043,-0.0043,-0.0044,-0.0044,-0.0145,-0.0149,-0.0153,-0.0168,0,0,-0.0164,-0.0166,0,0,0,0,0,0,0,0,0.0082,0.0078,0.0054,0.0051,0.0047,-0.0006,-0.0015,-0.0052,-0.0043,-0.0012,-0.0044,-0.0044,-0.0101,-0.0109,-0.0124,-0.0173,-0.0177,-0.0164,-0.0167,-0.0168,-0.0169,0,0,0,0,0,0,0,0.0085,0.0081,0.0052,0.0054,0.0049,0.0018,0.0012,-0.0022,-0.0055,-0.0014,-0.0018,-0.0023,-0.0104,-0.012,-0.0126,-0.0179,-0.0164,-0.0168,-0.017,-0.0171,-0.0281,-0.0282,0,0,0,0,0,0,0.0101,0.0084,0.0055,0.005,0.0066,0.0018,0.0011,0.001,-0.0055,-0.0064,-0.0022,-0.0025,-0.0113,-0.0122,-0.013,-0.0189,-0.0168,-0.0172,-0.0174,-0.028,-0.0281,-0.0282,0,0,0,0,0,0,0.0102,0.0099,0.0057,0.0066,0.0059,0.0018,0.0017,0.0009,-0.0008,-0.006,-0.007,-0.003,-0.0114,-0.0125,-0.0166,-0.0192,-0.0174,-0.0177,-0.028,-0.0281,-0.0282,-0.0283,0,0,0,0,0,0,0.0104,0.01,0.0104,0.0068,0.0059,0.0042,0.0017,0.0008,-0.0009,-0.0013,-0.007,-0.008,-0.0115,-0.016,-0.0169,-0.0197,-0.018,-0.0279,-0.028,-0.0281,-0.0282,-0.0284,-0.0285,0,0,0,0,0,0.0105,0.0114,0.0104,0.0101,0.0066,0.0043,0.0035,0.0003,-0.0009,-0.0014,-0.0057,-0.0078,-0.0175,-0.0163,-0.0174,-0.0203,-0.0278,-0.028,-0.0281,-0.0281,-0.0283,-0.0285,0,0,0,0,0,0,0.0132,0.0109,0.0097,0.0099,0.0075,0.0035,0.0029,0.0008,-0.0029,-0.0034,-0.0084,-0.0097,-0.0147,-0.0167,-0.0153,-0.0237,-0.0231,-0.0235,-0.0227,-0.023,-0.0231,-0.0189,-0.0183,0,0,0,0,0,0.0142,0.0141,0.0112,0.0113,0.0105,0.0068,0.0055,0.0034,-0.0002,-0.0019,-0.0062,-0.0109,-0.0162,-0.0187,-0.023,-0.0269,-0.0244,-0.0295,-0.0296,-0.0298,-0.027,-0.0262,-0.0259,-0.0287,-0.0287,-0.0287,0,0,0.0152,0.014,0.0138,0.0118,0.0098,0.0074,0.0059,0.0043,0.0013,-0.0024,-0.0074,-0.0115,-0.0172,-0.0226,-0.025,-0.0246,-0.0276,-0.0299,-0.03,-0.0272,-0.0263,-0.026,-0.0257,-0.0288,-0.0288,-0.0287,0,0,0.0163,0.0163,0.0158,0.014,0.0115,0.0089,0.0088,0.0048,0.0023,-0.0022,-0.0068,-0.0111,-0.0185,-0.0233,-0.0268,-0.0298,-0.0286,-0.0321,-0.0298,-0.0291,-0.0288,-0.0285,-0.0241,-0.0234,-0.0322,-0.0322,-0.0322,0,0.0175,0.0165,0.0154,0.0138,0.0125,0.0096,0.0081,0.0046,-0.0006,-0.0012,-0.0035,-0.0124,-0.0189,-0.0243,-0.0272,-0.0303,-0.0274,-0.029,-0.0291,-0.0287,-0.0284,-0.024,-0.0232,-0.0322,-0.0322,-0.0322,-0.0322,0,0.0171,0.0163,0.0162,0.0129,0.0113,0.0102,0.0058,0.0041,0.0012,-0.0015,-0.0054,-0.0126,-0.016,-0.0217,-0.0266,-0.0287,-0.0265,-0.0293,-0.028,-0.0281,-0.0234,-0.0226,-0.0322,-0.0322,-0.0322,-0.0322,0,0,0.02,0.0166,0.0164,0.0158,0.0112,0.0107,0.0065,0.0039,0.0059,-0.0013,0.0014,-0.0125,-0.0119,-0.0156,-0.0214,-0.0237,-0.0224,-0.0256,-0.0256,-0.0199,-0.0166,-0.0158,-0.0148,-0.0247,-0.0246,-0.0246,-0.0138,0,0.0199,0.0181,0.0157,0.014,0.0131,0.0104,0.0088,0.0064,0.0052,0.0074,0.0006,0.0008,-0.011,-0.0096,-0.015,-0.019,-0.0202,-0.0247,-0.0183,-0.0179,-0.0163,-0.014,-0.0161,-0.0068,-0.013,-0.0129,-0.0128,0,0.0196,0.019,0.0178,0.0176,0.0175,0.0168,0.0187,0.0172,0.0182,0.0189,0.0179,0.0159,0.0113,0.0034,-0.0036,-0.0051,-0.0104,-0.0147,-0.0144,-0.0124,-0.0157,-0.0081,-0.0051,-0.0265,-0.0115,-0.0116,-0.0117,0,0.0229,0.0206,0.0208,0.02,0.0189,0.0205,0.0211,0.0221,0.0277,0.0304,0.0397,0.0306,0.0361,0.0234,0.0126,0.0061,0.0092,-0.0006,-0.0043,-0.0041,-0.0038,-0.0038,-0.0194,-0.0033,-0.0033,-0.0034,-0.0034,0,0.0241,0.0245,0.0239,0.0245,0.0301,0.0271,0.0368,0.0363,0.0447,0.0591,0.0493,0.0629,0.0421,0.0412,0.023,0.0151,0.0179,-0.0008,-0.0012,-0.004,-0.0041,-0.021,-0.0307,-0.003,-0.003,-0.0031,-0.0032,0,0.0289,0.0261,0.0295,0.0309,0.0321,0.0383,0.0501,0.0599,0.065,0.0854,0.0895,0.0919,0.0911,0.0705,0.0567,0.0362,0.0131,0.0194,0.0195,0.0186,-0.0112,-0.0206,-0.0271,-0.0347,0.015,0.0151,0.0152,0,0.0313,0.0329,0.0377,0.0448,0.0471,0.0566,0.0659,0.07,0.0842,0.107,0.1205,0.1266,0.1351,0.1133,0.077,0.0483,0.0262,0.0272,0.0101,-0.0105,-0.0212,-0.0289,-0.0355,0.0115,0.0115,0.0115,0.0115,0,0.041,0.0434,0.0485,0.0621,0.0723,0.0849,0.0991,0.1127,0.1258,0.1445,0.1715,0.1801,0.1611,0.1328,0.0913,0.0668,0.012,0.027,0.0047,-0.0249,-0.0328,-0.0409,0.0042,0.0118,0.0118,0.0118,0.0117,0.0117,0.053,0.0613,0.071,0.0843,0.0966,0.1161,0.1291,0.1485,0.1735,0.2026,0.2079,0.2216,0.1745,0.1171,0.0855,0.0177,0.0186,-0.0083,-0.0169,-0.022,-0.034,0.0139,0.0201,0.0202,0.0202,0.0202,0.0202,0,0.072,0.0807,0.0941,0.1109,0.1277,0.1293,0.1538,0.1695,0.2011,0.2243,0.2442,0.2235,0.1699,0.1086,0.0203,-0.0224,-0.0403,-0.0462,-0.0622,-0.0663,-0.0248,-0.0306,-0.0338,-0.0338,-0.0338,-0.0338,-0.0338,-0.0337,0.0844,0.1015,0.1069,0.1365,0.1479,0.1691,0.1829,0.2063,0.2239,0.2497,0.2517,0.2481,0.1946,0.0514,-0.0481,-0.0706,-0.0982,-0.1016,-0.1136,-0.0934,-0.0908,-0.0883,-0.0966,-0.1136,-0.1137,-0.1546,-0.155,-0.1553]}],[{"header":{"parameterUnit":"m.s-1","parameterCategory":2,"la1":30.2991,"la2":30.254,"lo1":-89.0895,"lo2":-89.0444,"dy":0.0017,"dx":0.0017,"nx":28,"ny":28,"refTime":"2024-04-13T03:00:00:Z","depth":"2","parameterNumber":2,"parameterNumberName":"U-component_of_CURRENTS"},"data":[0,0,0,0,0,0,0,0,0,0,0,0,0,0,0,0,0,0,0,0,0,0,0,0,0,0,0,0,0,0,0,0,0,0,0,0,0,0,0,0,0,0,0,0,0,0,0,0,0,0,0,0,0,0,0,0,0,0,0.2113,0.2114,0,0.2175,0.2175,0.2175,0.2186,0.2186,0.2187,0.2187,0.2193,0.2193,0.2193,0,0,0,0,0,0,0,0,0,0,0,0,0,0.2011,0.2012,0.2113,0.2114,0.2116,0.2175,0.2175,0.2175,0.2186,0.2186,0.2187,0.2187,0.2193,0.2193,0.2193,0,0,0,0,0,0,0,0,0,0,0,0,0,0.2054,0.2012,0.2112,0.2135,0.2139,0.2175,0.2175,0.2175,0.2186,0.2186,0.2187,0.2187,0.2193,0.2193,0.2193,0.2182,0,0,0.2192,0.2192,0,0,0,0,0,0,0,0,0.2051,0.2056,0.213,0.2134,0.2138,0.2181,0.2142,0.2178,0.2186,0.2158,0.2187,0.2188,0.2189,0.2189,0.2188,0.2182,0.2183,0.2192,0.2192,0.2192,0.2192,0,0,0,0,0,0,0,0.2048,0.2054,0.2128,0.2132,0.2137,0.2146,0.2151,0.2148,0.2162,0.2161,0.2164,0.2185,0.219,0.2188,0.2188,0.2183,0.2192,0.2192,0.2192,0.2192,0.2259,0.2261,0,0,0,0,0,0,0.2058,0.2051,0.2126,0.2131,0.2105,0.2148,0.2154,0.2159,0.2164,0.2168,0.2185,0.2186,0.2188,0.2188,0.2189,0.2294,0.2192,0.2192,0.2191,0.2257,0.2259,0.2261,0,0,0,0,0,0,0.2055,0.2063,0.2124,0.2101,0.211,0.215,0.2156,0.2161,0.217,0.2184,0.2186,0.2192,0.2189,0.2189,0.2206,0.2289,0.2191,0.2191,0.2255,0.2258,0.226,0.2428,0,0,0,0,0,0,0.2052,0.2061,0.2069,0.2101,0.2112,0.2153,0.2157,0.2162,0.2186,0.2188,0.2191,0.2191,0.2189,0.2206,0.2206,0.2287,0.2191,0.2252,0.2256,0.2259,0.2421,0.2437,0.2451,0,0,0,0,0,0.2047,0.2066,0.2069,0.2079,0.2121,0.2155,0.216,0.2184,0.2186,0.2192,0.2203,0.2192,0.2229,0.2207,0.2206,0.229,0.2251,0.2255,0.2259,0.2414,0.2434,0.245,0,0,0,0,0,0,0.2033,0.207,0.2074,0.2104,0.2129,0.2161,0.2175,0.2188,0.2199,0.2203,0.2202,0.2203,0.2266,0.2231,0.2207,0.2316,0.2244,0.2248,0.2362,0.238,0.2395,0.2364,0.2191,0,0,0,0,0,0.2032,0.2049,0.2085,0.2108,0.2117,0.2142,0.216,0.218,0.22,0.2205,0.2215,0.2231,0.228,0.2289,0.231,0.2345,0.2334,0.2399,0.2414,0.2427,0.24,0.2461,0.2481,0.2275,0.2275,0.2275,0,0,0.2035,0.2059,0.2069,0.2105,0.212,0.2176,0.2151,0.2185,0.225,0.2203,0.2272,0.2284,0.23,0.2371,0.2394,0.2353,0.249,0.2433,0.2445,0.2408,0.2468,0.2488,0.2506,0.2278,0.2278,0.2277,0,0,0.2065,0.2062,0.2094,0.2121,0.2163,0.2194,0.2207,0.2243,0.2267,0.2331,0.234,0.2377,0.2429,0.2462,0.2489,0.2581,0.2576,0.2606,0.2654,0.2718,0.2735,0.275,0.2811,0.283,0.2605,0.2606,0.2606,0,0.2069,0.2123,0.2109,0.2158,0.2199,0.221,0.2272,0.231,0.2356,0.237,0.2375,0.2464,0.2481,0.2573,0.2622,0.2621,0.2647,0.2597,0.274,0.2754,0.2767,0.2824,0.2843,0.2614,0.2613,0.2612,0.2612,0,0.2134,0.2185,0.2204,0.2278,0.2308,0.2361,0.2415,0.2447,0.2485,0.2519,0.2594,0.2618,0.2655,0.2702,0.27,0.2805,0.2795,0.2768,0.2701,0.2798,0.2853,0.2869,0.2627,0.2624,0.2621,0.2619,0,0,0.2158,0.2234,0.2259,0.2289,0.2378,0.2402,0.2503,0.2574,0.2622,0.2676,0.2743,0.2833,0.2804,0.2827,0.2835,0.2886,0.3033,0.2867,0.2867,0.2938,0.3187,0.3089,0.3098,0.3046,0.3049,0.3051,0.3207,0,0.2229,0.2327,0.2367,0.2475,0.2516,0.2551,0.2633,0.2688,0.2743,0.2805,0.2832,0.2907,0.2873,0.2907,0.2955,0.3018,0.3075,0.2992,0.3067,0.3069,0.298,0.3112,0.2858,0.2967,0.3223,0.3226,0.3228,0,0.2312,0.2359,0.2462,0.2534,0.2555,0.2626,0.2708,0.2785,0.2865,0.29,0.2948,0.2974,0.3063,0.3022,0.3153,0.3109,0.3147,0.3183,0.319,0.3033,0.3,0.2899,0.2986,0.3254,0.3252,0.325,0.3249,0,0.2318,0.2438,0.2511,0.2543,0.2628,0.2666,0.2722,0.2798,0.2861,0.2956,0.3028,0.3088,0.318,0.3217,0.328,0.3242,0.342,0.3379,0.332,0.3315,0.3071,0.3037,0.3458,0.3457,0.3457,0.3457,0.3456,0,0.2385,0.2443,0.251,0.2541,0.2611,0.2659,0.2746,0.28,0.2906,0.2991,0.3064,0.3155,0.3241,0.3342,0.3341,0.3391,0.3475,0.3342,0.3352,0.3125,0.3097,0.3294,0.3273,0.3462,0.3461,0.346,0.3459,0,0.2384,0.2444,0.2506,0.2585,0.261,0.2649,0.2761,0.282,0.2933,0.3061,0.311,0.3273,0.339,0.3449,0.3555,0.3503,0.353,0.3516,0.3242,0.3213,0.3368,0.3354,0.3479,0.3477,0.3475,0.3473,0.3472,0,0.2396,0.2427,0.2509,0.2543,0.2583,0.2652,0.2702,0.2811,0.2878,0.3113,0.317,0.336,0.341,0.3533,0.3489,0.348,0.3535,0.3249,0.3101,0.3376,0.3374,0.3362,0.335,0.2877,0.2871,0.2867,0.2863,0,0.2401,0.2429,0.2477,0.2535,0.259,0.2641,0.2718,0.2777,0.2923,0.3023,0.3149,0.3216,0.3351,0.3228,0.3256,0.3203,0.3218,0.3146,0.3545,0.2891,0.2815,0.281,0.2818,0.2819,0.2823,0.2826,0.2829,0.2831,0.2402,0.2423,0.2485,0.2519,0.2587,0.2611,0.2593,0.266,0.2725,0.2791,0.2972,0.2963,0.3025,0.2899,0.2827,0.2795,0.2987,0.2852,0.2865,0.2883,0.2765,0.2688,0.2648,0.2651,0.2654,0.2656,0.2658,0,0.2381,0.2408,0.2458,0.2483,0.2483,0.2548,0.2582,0.2482,0.2443,0.2576,0.2581,0.2403,0.2358,0.2435,0.2315,0.2317,0.2272,0.2232,0.2155,0.2201,0.2242,0.2087,0.1792,0.1789,0.1786,0.1784,0,0,0.2372,0.2382,0.2378,0.2349,0.2369,0.2294,0.2265,0.2121,0.2125,0.2036,0.2034,0.219,0.2356,0.2028,0.2005,0.1887,0.2024,0.1816,0.2517,0.2474,0.251,0.2613,0.2429,0,0,0,0,0]},{"header":{"parameterUnit":"m.s-1","parameterCategory":2,"la1":30.2991,"la2":30.254,"lo1":-89.0895,"lo2":-89.0444,"dy":0.0017,"dx":0.0017,"nx":28,"ny":28,"refTime":"2024-04-13T03:00:00:Z","depth":"2","parameterNumber":3,"parameterNumberName":"V-component_of_CURRENTS"},"data":[0,0,0,0,0,0,0,0,0,0,0,0,0,0,0,0,0,0,0,0,0,0,0,0,0,0,0,0,0,0,0,0,0,0,0,0,0,0,0,0,0,0,0,0,0,0,0,0,0,0,0,0,0,0,0,0,0,0,-0.0078,-0.0079,0,-0.0145,-0.0146,-0.0147,-0.0194,-0.0194,-0.0194,-0.0194,-0.029,-0.0293,-0.0295,0,0,0,0,0,0,0,0,0,0,0,0,0,-0.0053,-0.0053,-0.0078,-0.0079,-0.0079,-0.0145,-0.0146,-0.0147,-0.0194,-0.0194,-0.0194,-0.0194,-0.029,-0.0292,-0.0295,0,0,0,0,0,0,0,0,0,0,0,0,0,-0.0088,-0.0053,-0.0078,-0.0109,-0.0112,-0.0145,-0.0146,-0.0147,-0.0194,-0.0194,-0.0194,-0.0194,-0.0289,-0.0292,-0.0296,-0.0313,0,0,-0.0307,-0.0308,0,0,0,0,0,0,0,0,-0.0086,-0.0089,-0.0104,-0.0107,-0.011,-0.0159,-0.0173,-0.0204,-0.0194,-0.0165,-0.0194,-0.0194,-0.0248,-0.0255,-0.0269,-0.0318,-0.0322,-0.0307,-0.0309,-0.0311,-0.0312,0,0,0,0,0,0,0,-0.0084,-0.0087,-0.0107,-0.0104,-0.0108,-0.0141,-0.0146,-0.0179,-0.0206,-0.0167,-0.017,-0.0174,-0.025,-0.0266,-0.0272,-0.0323,-0.0307,-0.031,-0.0312,-0.0314,-0.0411,-0.0411,0,0,0,0,0,0,-0.0067,-0.0084,-0.0105,-0.0109,-0.0096,-0.014,-0.0146,-0.0145,-0.0205,-0.0214,-0.0174,-0.0176,-0.026,-0.0268,-0.0276,-0.0332,-0.0311,-0.0314,-0.0316,-0.041,-0.0411,-0.0411,0,0,0,0,0,0,-0.0066,-0.0068,-0.0102,-0.0097,-0.0103,-0.014,-0.0139,-0.0146,-0.016,-0.021,-0.0219,-0.018,-0.026,-0.0271,-0.0307,-0.0334,-0.0316,-0.0319,-0.041,-0.0411,-0.0411,-0.0423,0,0,0,0,0,0,-0.0065,-0.0067,-0.0064,-0.0095,-0.0103,-0.0116,-0.0139,-0.0147,-0.0161,-0.0165,-0.0218,-0.0227,-0.0261,-0.0302,-0.0311,-0.0339,-0.0322,-0.0409,-0.041,-0.0411,-0.0422,-0.0424,-0.0426,0,0,0,0,0,-0.0064,-0.0055,-0.0063,-0.0066,-0.0095,-0.0115,-0.0122,-0.0152,-0.0161,-0.0166,-0.0205,-0.0226,-0.0313,-0.0305,-0.0316,-0.0346,-0.0409,-0.041,-0.0411,-0.0422,-0.0424,-0.0426,0,0,0,0,0,0,-0.0044,-0.0059,-0.0069,-0.0065,-0.0086,-0.0122,-0.0128,-0.0146,-0.018,-0.0184,-0.0231,-0.0243,-0.0291,-0.0306,-0.0296,-0.0373,-0.0365,-0.0368,-0.0369,-0.0372,-0.0373,-0.0324,-0.0325,0,0,0,0,0,-0.0035,-0.0032,-0.0056,-0.0054,-0.006,-0.0092,-0.0104,-0.0123,-0.0155,-0.017,-0.021,-0.0253,-0.0304,-0.0325,-0.0367,-0.0402,-0.0384,-0.0426,-0.0428,-0.0429,-0.0395,-0.0388,-0.0385,-0.0414,-0.0414,-0.0414,0,0,-0.0028,-0.0035,-0.0035,-0.0049,-0.0067,-0.0088,-0.0101,-0.0113,-0.014,-0.0175,-0.0222,-0.0263,-0.0314,-0.0365,-0.0387,-0.038,-0.0417,-0.043,-0.0432,-0.0396,-0.0388,-0.0385,-0.0382,-0.0415,-0.0415,-0.0415,0,0,-0.0018,-0.0016,-0.0016,-0.003,-0.0049,-0.0075,-0.0075,-0.011,-0.0131,-0.0173,-0.0217,-0.0258,-0.0328,-0.0372,-0.0404,-0.0431,-0.043,-0.0454,-0.0423,-0.0418,-0.0415,-0.0412,-0.0406,-0.0402,-0.0452,-0.0452,-0.0452,0,-0.0013,-0.0013,-0.002,-0.0029,-0.0039,-0.0068,-0.0078,-0.0111,-0.0158,-0.016,-0.0185,-0.0267,-0.033,-0.0377,-0.0405,-0.0436,-0.0422,-0.0418,-0.0419,-0.0415,-0.0412,-0.0406,-0.0401,-0.0452,-0.0452,-0.0452,-0.0452,0,-0.0007,-0.0014,-0.0012,-0.0037,-0.0049,-0.0057,-0.0096,-0.0111,-0.0138,-0.0163,-0.0197,-0.0268,-0.0297,-0.0353,-0.0399,-0.0415,-0.0411,-0.0426,-0.041,-0.0409,-0.0404,-0.0399,-0.0453,-0.0453,-0.0453,-0.0453,0,0,0.0011,-0.0005,-0.0008,-0.0007,-0.0047,-0.0049,-0.0085,-0.0105,-0.0083,-0.0152,-0.0124,-0.0254,-0.025,-0.0283,-0.0341,-0.036,-0.0368,-0.0381,-0.038,-0.0367,-0.0343,-0.0397,-0.0396,-0.0379,-0.0378,-0.0377,-0.0356,0,0.0012,0.0011,-0.0007,-0.0018,-0.0021,-0.0043,-0.0056,-0.0073,-0.0085,-0.0065,-0.0128,-0.0131,-0.0238,-0.0229,-0.0274,-0.033,-0.0351,-0.0371,-0.035,-0.0349,-0.039,-0.0391,-0.0364,-0.0347,-0.0351,-0.035,-0.035,0,0.0014,0.0018,0.002,0.0027,0.0029,0.0025,0.0053,0.0039,0.0048,0.0055,0.0046,0.0019,-0.003,-0.01,-0.0188,-0.0189,-0.026,-0.0313,-0.0313,-0.0343,-0.0392,-0.0345,-0.0338,-0.0341,-0.0342,-0.0343,-0.0343,0,0.0046,0.0035,0.005,0.0046,0.0046,0.0069,0.0077,0.0091,0.0139,0.0165,0.024,0.0156,0.018,0.0065,-0.0085,-0.0114,-0.016,-0.021,-0.0323,-0.0327,-0.0287,-0.029,-0.0248,-0.0248,-0.0248,-0.0248,-0.0248,0,0.0056,0.0066,0.0082,0.0093,0.0159,0.0135,0.0226,0.0232,0.03,0.0406,0.0332,0.0414,0.0231,0.017,-0.0004,-0.0147,-0.0098,-0.0298,-0.032,-0.0296,-0.03,-0.0276,-0.0279,-0.0248,-0.0248,-0.0248,-0.0248,0,0.009,0.0083,0.0123,0.0155,0.0178,0.0239,0.0345,0.0424,0.0474,0.0623,0.0654,0.0638,0.0547,0.0336,0.0167,-0.0004,-0.0165,-0.023,-0.0198,-0.0218,-0.0352,-0.0357,-0.033,-0.0332,-0.0333,-0.0334,-0.0335,0,0.0108,0.0128,0.02,0.0264,0.0292,0.0384,0.0465,0.0513,0.0611,0.077,0.0857,0.0831,0.0787,0.0498,0.0194,-0.0105,-0.0154,-0.0252,-0.0325,-0.0334,-0.0358,-0.036,-0.0363,-0.0277,-0.0277,-0.0277,-0.0278,0,0.0165,0.0199,0.0251,0.0374,0.047,0.0581,0.0695,0.0784,0.0878,0.0977,0.1084,0.1063,0.0843,0.0538,0.0147,-0.0051,-0.0217,-0.0269,-0.0247,-0.028,-0.0288,-0.031,-0.0313,-0.028,-0.028,-0.028,-0.028,-0.028,0.0236,0.0299,0.0379,0.0484,0.0611,0.0738,0.0806,0.0924,0.1036,0.117,0.1188,0.117,0.0912,0.0385,0.0073,-0.0234,-0.024,-0.0356,-0.0353,-0.0349,-0.0367,-0.0379,-0.0391,-0.0391,-0.0391,-0.0392,-0.0392,0,0.03,0.0364,0.0479,0.0588,0.0699,0.0769,0.0928,0.0994,0.1076,0.1232,0.126,0.1027,0.0715,0.0429,-0.003,-0.0325,-0.0336,-0.0408,-0.0354,-0.035,-0.0346,-0.0362,-0.0385,-0.0386,-0.0387,-0.0387,0,0,0.0343,0.0425,0.0451,0.06,0.0702,0.0835,0.0907,0.1034,0.1153,0.1224,0.1239,0.1199,0.0851,0.0519,0.0131,-0.0116,-0.0164,-0.0168,-0.0145,-0.0032,-0.0025,-0.0294,-0.0312,0,0,0,0,0]}],[{"header":{"parameterUnit":"m.s-1","parameterCategory":2,"la1":30.2991,"la2":30.254,"lo1":-89.0895,"lo2":-89.0444,"dy":0.0017,"dx":0.0017,"nx":28,"ny":28,"refTime":"2024-04-13T03:00:00:Z","depth":"4","parameterNumber":2,"parameterNumberName":"U-component_of_CURRENTS"},"data":[0,0,0,0,0,0,0,0,0,0,0,0,0,0,0,0,0,0,0,0,0,0,0,0,0,0,0,0,0,0,0,0,0,0,0,0,0,0,0,0,0,0,0,0,0,0,0,0,0,0,0,0,0,0,0,0,0,0,0.1128,0.1129,0,0.1143,0.1143,0.1143,0.12,0.1201,0.1203,0.1204,0.1274,0.1275,0.1276,0,0,0,0,0,0,0,0,0,0,0,0,0,0.1093,0.1093,0.1128,0.1129,0.1129,0.1143,0.1143,0.1143,0.12,0.1201,0.1203,0.1204,0.1274,0.1275,0.1276,0,0,0,0,0,0,0,0,0,0,0,0,0,0.1108,0.1093,0.1128,0.1159,0.1161,0.1143,0.1143,0.1143,0.1199,0.1201,0.1203,0.1205,0.1274,0.1275,0.1276,0.1243,0,0,0.1279,0.1279,0,0,0,0,0,0,0,0,0.1107,0.1109,0.1154,0.1156,0.116,0.1172,0.1156,0.118,0.1199,0.1185,0.1204,0.1206,0.1244,0.1247,0.1245,0.1246,0.1249,0.1279,0.128,0.128,0.128,0,0,0,0,0,0,0,0.1106,0.1108,0.1134,0.1154,0.1157,0.1152,0.1157,0.116,0.1204,0.1186,0.1191,0.1191,0.1246,0.1244,0.1247,0.1251,0.1279,0.128,0.1281,0.1281,0.1345,0.1347,0,0,0,0,0,0,0.1105,0.1108,0.1134,0.1135,0.1137,0.1151,0.1157,0.1166,0.1203,0.121,0.119,0.1194,0.1241,0.1246,0.125,0.1296,0.128,0.1281,0.1282,0.1344,0.1346,0.1347,0,0,0,0,0,0,0.1104,0.1107,0.1133,0.1121,0.1124,0.115,0.116,0.1165,0.1199,0.1205,0.1214,0.1223,0.1243,0.1249,0.1285,0.1296,0.1281,0.1282,0.1343,0.1345,0.1346,0.1335,0,0,0,0,0,0,0.1103,0.1107,0.1121,0.1121,0.1125,0.1145,0.1158,0.1164,0.1195,0.1201,0.1235,0.1242,0.1245,0.1283,0.1286,0.1297,0.1283,0.1342,0.1344,0.1346,0.1334,0.1336,0.1337,0,0,0,0,0,0.1102,0.1105,0.1122,0.1126,0.1141,0.1146,0.1147,0.1171,0.1195,0.121,0.1238,0.1243,0.1299,0.1285,0.1288,0.1299,0.1341,0.1343,0.1346,0.1333,0.1335,0.1337,0,0,0,0,0,0,0.1094,0.1111,0.113,0.1139,0.1155,0.1156,0.1167,0.1187,0.1218,0.1235,0.1249,0.1257,0.1287,0.1302,0.1286,0.1328,0.1324,0.1327,0.1313,0.1315,0.1317,0.1331,0.1284,0,0,0,0,0,0.1099,0.1112,0.1126,0.1137,0.1147,0.1165,0.1174,0.1193,0.1213,0.1231,0.1246,0.1273,0.129,0.1314,0.1321,0.1345,0.14,0.136,0.1362,0.1363,0.1379,0.1488,0.1501,0.1355,0.1355,0.1355,0,0,0.1096,0.1109,0.1116,0.1138,0.1151,0.1149,0.1177,0.1198,0.1205,0.1231,0.125,0.1271,0.1296,0.1317,0.1334,0.134,0.1431,0.1366,0.1367,0.1382,0.1492,0.1507,0.1519,0.1357,0.1357,0.1356,0,0,0.1068,0.1115,0.1102,0.1118,0.1143,0.1159,0.1174,0.119,0.1216,0.1233,0.1255,0.1308,0.131,0.135,0.1366,0.1394,0.1427,0.1382,0.1412,0.1517,0.1531,0.1543,0.1616,0.1635,0.1395,0.1395,0.1395,0,0.1059,0.1057,0.11,0.1089,0.1108,0.1166,0.1161,0.1183,0.1209,0.1237,0.1243,0.132,0.1334,0.1404,0.1397,0.14,0.1447,0.1395,0.1521,0.1534,0.1547,0.162,0.1641,0.1395,0.1395,0.1395,0.1395,0,0.101,0.102,0.1019,0.1032,0.1063,0.1075,0.1117,0.1151,0.1193,0.1217,0.1297,0.1346,0.1421,0.1411,0.1399,0.1496,0.1493,0.1499,0.1513,0.1561,0.1634,0.1656,0.1394,0.1394,0.1395,0.1395,0,0,0.0943,0.0976,0.0975,0.0989,0.1045,0.1062,0.1099,0.1151,0.1201,0.125,0.1335,0.1371,0.1449,0.1477,0.1512,0.1574,0.1682,0.1561,0.1567,0.163,0.1892,0.1705,0.1711,0.1703,0.1707,0.171,0.19,0,0.0888,0.087,0.0909,0.0916,0.0921,0.1009,0.1046,0.1113,0.1185,0.1275,0.1385,0.148,0.1465,0.1543,0.1604,0.1678,0.1742,0.1629,0.184,0.1846,0.1672,0.1732,0.1724,0.1917,0.1922,0.1926,0.1929,0,0.0811,0.0822,0.0822,0.0889,0.0905,0.0938,0.1063,0.1092,0.1233,0.1315,0.146,0.1555,0.1714,0.1687,0.1882,0.1808,0.1847,0.1879,0.1889,0.1737,0.17,0.1865,0.197,0.1967,0.1964,0.1961,0.1958,0,0.0739,0.0759,0.0775,0.0793,0.0874,0.0928,0.0988,0.1112,0.1196,0.1384,0.1494,0.1687,0.1836,0.1938,0.2014,0.1977,0.2179,0.2165,0.2035,0.2023,0.2141,0.2126,0.2284,0.2284,0.2283,0.2283,0.2282,0,0.0657,0.066,0.0758,0.0759,0.0824,0.0899,0.1009,0.1085,0.1274,0.1392,0.154,0.1694,0.1899,0.2032,0.2075,0.2123,0.2268,0.2053,0.2066,0.2127,0.2109,0.2156,0.2138,0.229,0.2288,0.2287,0.2286,0,0.0552,0.0604,0.0628,0.0737,0.0785,0.0834,0.1034,0.1121,0.1282,0.146,0.1554,0.1775,0.194,0.2071,0.2249,0.22,0.2267,0.2228,0.228,0.2291,0.2029,0.201,0.2158,0.2153,0.2149,0.2146,0.2143,0,0.049,0.0488,0.0608,0.067,0.0731,0.0848,0.0945,0.1123,0.1219,0.1489,0.1557,0.1791,0.1917,0.2033,0.2153,0.2256,0.22,0.2228,0.2116,0.2022,0.2022,0.2008,0.1994,0.2136,0.2135,0.2134,0.2133,0,0.0377,0.0437,0.0475,0.0596,0.0708,0.0827,0.0962,0.1042,0.1243,0.1418,0.1574,0.1698,0.1839,0.1966,0.2028,0.2086,0.2223,0.2185,0.2193,0.2088,0.1998,0.1998,0.1989,0.2119,0.2121,0.2122,0.2123,0,0.0319,0.0337,0.0415,0.0522,0.0647,0.0756,0.0853,0.0992,0.1115,0.1384,0.1444,0.1651,0.1838,0.1877,0.195,0.1981,0.1958,0.19,0.1923,0.194,0.177,0.1617,0.165,0,0,0,0,0,0.0272,0.029,0.0354,0.0467,0.0587,0.0666,0.0838,0.0943,0.1134,0.1208,0.133,0.1459,0.1604,0.1699,0.1691,0.1834,0.1943,0.1813,0.188,0.2039,0.2056,0.187,0,0,0,0,0,0,0.0245,0.0284,0.0308,0.0388,0.0464,0.0591,0.0696,0.0843,0.0875,0.1086,0.1161,0.1342,0.148,0.1589,0.1652,0.1682,0.1689,0.1942,0.1938,0.203,0.2045,0.2058,0.1873,0,0,0,0,0]},{"header":{"parameterUnit":"m.s-1","parameterCategory":2,"la1":30.2991,"la2":30.254,"lo1":-89.0895,"lo2":-89.0444,"dy":0.0017,"dx":0.0017,"nx":28,"ny":28,"refTime":"2024-04-13T03:00:00:Z","depth":"4","parameterNumber":3,"parameterNumberName":"V-component_of_CURRENTS"},"data":[0,0,0,0,0,0,0,0,0,0,0,0,0,0,0,0,0,0,0,0,0,0,0,0,0,0,0,0,0,0,0,0,0,0,0,0,0,0,0,0,0,0,0,0,0,0,0,0,0,0,0,0,0,0,0,0,0,0,-0.0028,-0.0029,0,-0.0058,-0.0059,-0.0059,-0.0096,-0.0097,-0.0097,-0.0098,-0.0168,-0.0169,-0.017,0,0,0,0,0,0,0,0,0,0,0,0,0,-0.0027,-0.0027,-0.0028,-0.0029,-0.0029,-0.0058,-0.0059,-0.0059,-0.0096,-0.0097,-0.0098,-0.0098,-0.0167,-0.0169,-0.017,0,0,0,0,0,0,0,0,0,0,0,0,0,-0.004,-0.0027,-0.0028,-0.005,-0.0052,-0.0058,-0.0059,-0.0059,-0.0096,-0.0097,-0.0098,-0.0098,-0.0167,-0.0169,-0.0171,-0.0169,0,0,-0.0177,-0.0178,0,0,0,0,0,0,0,0,-0.004,-0.004,-0.0047,-0.0049,-0.0051,-0.0074,-0.0084,-0.0098,-0.0096,-0.0081,-0.0098,-0.0099,-0.0139,-0.0143,-0.0148,-0.0172,-0.0175,-0.0177,-0.0178,-0.0179,-0.018,0,0,0,0,0,0,0,-0.0039,-0.004,-0.0041,-0.0047,-0.005,-0.0067,-0.0069,-0.0087,-0.0107,-0.0082,-0.0085,-0.0086,-0.014,-0.0146,-0.015,-0.0176,-0.0177,-0.0179,-0.018,-0.0181,-0.0184,-0.0183,0,0,0,0,0,0,-0.0031,-0.0038,-0.004,-0.0042,-0.0046,-0.0066,-0.0069,-0.0066,-0.0106,-0.0112,-0.0085,-0.0088,-0.0142,-0.0147,-0.0152,-0.011,-0.0179,-0.0181,-0.0182,-0.0185,-0.0184,-0.0182,0,0,0,0,0,0,-0.003,-0.003,-0.0039,-0.0041,-0.0043,-0.0065,-0.0062,-0.0067,-0.0075,-0.0107,-0.0115,-0.009,-0.0143,-0.015,-0.016,-0.0115,-0.0182,-0.0184,-0.0187,-0.0185,-0.0183,-0.0052,0,0,0,0,0,0,-0.003,-0.003,-0.0027,-0.004,-0.0042,-0.0035,-0.0061,-0.0067,-0.0074,-0.0078,-0.0113,-0.012,-0.0144,-0.0157,-0.0162,-0.0119,-0.0186,-0.0188,-0.0186,-0.0184,-0.0058,-0.0046,-0.0036,0,0,0,0,0,-0.003,-0.0017,-0.0027,-0.0027,-0.0037,-0.0034,-0.0037,-0.0056,-0.0074,-0.0069,-0.0092,-0.012,-0.0147,-0.0158,-0.0164,-0.012,-0.0189,-0.0186,-0.0184,-0.0063,-0.0049,-0.0037,0,0,0,0,0,0,-0.0019,-0.002,-0.0031,-0.0021,-0.0025,-0.004,-0.0037,-0.0053,-0.0068,-0.0072,-0.0109,-0.0117,-0.0102,-0.0139,-0.0151,-0.0117,-0.017,-0.0169,-0.0076,-0.0063,-0.0052,-0.0029,-0.0187,0,0,0,0,0,-0.0013,-0.0004,-0.0011,-0.0005,-0.0003,-0.0022,-0.0025,-0.0034,-0.0048,-0.0056,-0.0075,-0.0096,-0.0095,-0.0104,-0.0113,-0.0104,-0.0171,-0.0081,-0.007,-0.0061,-0.0047,-0.0139,-0.0135,-0.0174,-0.0174,-0.0174,0,0,-0.001,-0.0008,-0.0005,-0.0002,-0.0008,0.0022,-0.0025,-0.0021,0.0016,-0.006,-0.0025,-0.0057,-0.0084,-0.006,-0.0058,-0.0088,-0.0081,-0.0057,-0.0048,-0.0041,-0.0136,-0.0133,-0.013,-0.0172,-0.0172,-0.0173,0,0,0.0027,0.0008,0.004,0.0046,0.0049,0.0044,0.0049,0.0043,0.005,0.0072,0.0039,0.0031,0.002,0.0019,0.0015,0.0074,-0.0017,0.0066,0.0139,0.005,0.0052,0.0053,-0.001,-0.0016,0.0067,0.0067,0.0067,0,0.0033,0.0078,0.0048,0.0089,0.0108,0.0063,0.0114,0.0121,0.0115,0.0125,0.01,0.0087,0.007,0.0098,0.0131,0.0105,0.0029,0.0096,0.0064,0.0064,0.0062,-0.0004,-0.0012,0.0074,0.0073,0.0072,0.0072,0,0.0106,0.0143,0.0162,0.0206,0.0215,0.0247,0.0255,0.0266,0.026,0.0256,0.0272,0.0237,0.0216,0.0226,0.0206,0.0204,0.0147,0.0092,0.0032,0.0074,0.0002,-0.0009,0.0083,0.0081,0.0079,0.0077,0,0,0.013,0.0203,0.0213,0.0253,0.0284,0.0297,0.0359,0.0393,0.0402,0.0406,0.041,0.0444,0.038,0.0371,0.0328,0.0276,0.0227,0.0189,0.0181,0.0131,0.0029,0.0032,0.002,0.0142,0.0141,0.014,-0.0012,0,0.0206,0.0311,0.0329,0.0419,0.0471,0.046,0.0511,0.0525,0.051,0.0492,0.0469,0.0446,0.0448,0.0407,0.0371,0.0241,0.02,0.0274,-0.0008,-0.0015,-0.0015,0.0008,0.0135,-0.0021,-0.0024,-0.0025,-0.0027,0,0.0289,0.0346,0.0459,0.0527,0.0544,0.0588,0.0615,0.0648,0.062,0.0601,0.0571,0.0499,0.0462,0.0418,0.0271,0.0302,0.0196,0.0105,0.0094,0.0045,-0.0032,-0.0078,-0.0048,-0.0046,-0.0045,-0.0043,-0.0042,0,0.0329,0.0439,0.053,0.0558,0.0623,0.0666,0.0686,0.0681,0.0685,0.0632,0.0582,0.0526,0.0445,0.0329,0.0186,0.0192,-0.0018,-0.005,-0.0129,-0.0131,-0.0148,-0.0148,-0.0154,-0.0154,-0.0154,-0.0153,-0.0153,0,0.0407,0.0475,0.0555,0.06,0.0665,0.0701,0.0739,0.0736,0.0711,0.0682,0.0618,0.0554,0.0405,0.0269,0.0162,-0.0008,-0.0042,-0.0104,-0.0169,-0.0087,-0.0078,-0.0156,-0.0154,-0.0159,-0.0158,-0.0156,-0.0155,0,0.0431,0.0501,0.0585,0.0668,0.0688,0.0721,0.0756,0.0758,0.0742,0.0684,0.0657,0.0536,0.0367,0.0229,0.0004,-0.0057,-0.0215,-0.0265,-0.0148,-0.0206,-0.026,-0.0249,-0.0375,-0.0376,-0.0377,-0.0377,-0.0378,0,0.0453,0.0506,0.0595,0.0618,0.0657,0.0712,0.0732,0.076,0.075,0.0673,0.0626,0.0465,0.0375,0.0086,-0.0054,-0.0258,-0.0273,-0.0351,-0.0286,-0.0231,-0.0283,-0.0271,-0.0259,-0.038,-0.038,-0.038,-0.038,0,0.0456,0.0488,0.0537,0.059,0.063,0.067,0.0706,0.0705,0.0712,0.0696,0.0586,0.0448,0.0256,0.0074,-0.0088,-0.0228,-0.0298,-0.0361,-0.0359,-0.03,-0.0239,-0.0287,-0.0274,-0.0384,-0.0383,-0.0383,-0.0383,0,0.0422,0.0441,0.0498,0.0543,0.0584,0.0612,0.0647,0.065,0.0655,0.0605,0.0562,0.0392,0.03,0.0085,-0.0064,-0.0199,-0.0223,-0.0249,-0.0253,-0.0252,-0.0154,-0.0055,-0.0193,0,0,0,0,0,0.0389,0.0412,0.0439,0.0497,0.0538,0.0576,0.0611,0.0646,0.0667,0.0595,0.0594,0.0433,0.0209,0.0104,-0.0031,-0.0094,-0.0259,-0.0258,-0.0295,-0.0402,-0.0398,-0.0302,0,0,0,0,0,0,0.0364,0.0396,0.0425,0.0452,0.0487,0.0536,0.0568,0.0584,0.0561,0.0562,0.0447,0.0413,0.0193,0.0292,-0.0029,-0.0072,-0.0112,-0.0353,-0.0356,-0.0404,-0.0401,-0.0398,-0.0297,0,0,0,0,0]}]]